ZSPD

Shanghai Pudong International

Airport
ICAO code
ZSPD
Summary
ICAO Region
APAC
ICAO Territory
Location

Pudong, Shanghai,

Coordinates
31° 8' 56" N , 121° 48' 3" E
KCC
Airport LOS
Parallel Runway Operation
Airport WX
Tropical Revolving Storm
Metar
ZSPD 282230Z 28004MPS 5000 -RA BR BKN005 OVC033 08/08 Q1020 NOSIG

Description

International airport serving the city of Shanghai.

Climatology

Humid “subtropical” climate (Köppen climate classification Cfa) - characterized by hot, humid summers and cool winters. Significant amounts of precipitation occur in all seasons in most areas. Winter rainfall (and sometimes snowfall) is associated with large storms that the westerlies steer from west to east. Most summer rainfall occurs during thunderstorms.

SKYbrary Partners:

Safety knowledge contributed by: